Starlink 33620

operational
NORAD ID: 63069 Int'l Des: 2025-035 Owner: SPXS Country: US Constellation: starlink
LEOCIRCULAR

关于 Starlink 33620

正在加载描述...

实时位置

正在加载3D地球...

即将过境

高度历史

Altitude vs Time

uPlot chart will show altitude changes over time

两行轨道根数

1 63069U 25035T 25351.13639881 .00017555 00000-0 64543-3 0 9992
2 63069 43.0015 253.3557 0001351 277.8713 82.1985 15.27605508 47096
Epoch: Dec 17, 2025 • Age: 15 hours

当前状态

高度 494.2 km
速度 7.62 km/s
星下点 -40.30°S, 178.49°E
发射日期 Feb 21, 2025
运行时间 0.8 years
类型 internet

技术详情

分类 Payload
质量 575.00 kg
干质量 530.00 kg
总质量 575.00 kg
长度 0.30 m
直径 4.10 m
跨度 29.00 m
形状 Box + pan
制造商 SPXS
平台类型 Starlink V2MO
阶段状态 In Orbit
所有者/国家 SPXS/US

大型星座

Loading constellations...